CEB125 RPVB-RPVM

Flight info

Callsign CEB125
Flight time 0h 24m
Altitude 11000
Route TADAG2E TADAG TADAG3P
Aircraft A20N/M-SDE2E3FGHIRWXY/LB1

Departure

Time 2026-04-25 23:52
Airport Bacolod-Silay International Airport (RPVB)

Arrival

Time 2026-04-26 00:16
Airport Mactan Cebu International Airport (RPVM)
Time Latitude Longitude Altitude Speed Heading
2026-04-25 23:36 10.77674 123.01578 36 ft 0 kts 301°
2026-04-25 23:44 10.77667 123.01585 36 ft 1 kts 321°
2026-04-25 23:44 10.77660 123.01598 36 ft 2 kts 296°
2026-04-25 23:45 10.77652 123.01611 36 ft 2 kts 302°
2026-04-25 23:45 10.77647 123.01619 36 ft 2 kts 299°
2026-04-25 23:45 10.77645 123.01634 36 ft 2 kts 254°
2026-04-25 23:45 10.77652 123.01647 36 ft 1 kts 218°
2026-04-25 23:46 10.77656 123.01650 36 ft 0 kts 207°
2026-04-25 23:46 10.77650 123.01645 36 ft 0 kts 215°
2026-04-25 23:48 10.77643 123.01640 36 ft 2 kts 214°
2026-04-25 23:48 10.77614 123.01621 36 ft 7 kts 210°
2026-04-25 23:48 10.77564 123.01594 36 ft 8 kts 208°
2026-04-25 23:48 10.77504 123.01560 36 ft 10 kts 210°
2026-04-25 23:49 10.77436 123.01520 36 ft 11 kts 210°
2026-04-25 23:49 10.77359 123.01530 36 ft 12 kts 131°
2026-04-25 23:49 10.77312 123.01605 36 ft 12 kts 120°
2026-04-25 23:49 10.77258 123.01672 36 ft 10 kts 179°
2026-04-25 23:50 10.77193 123.01640 36 ft 11 kts 211°
2026-04-25 23:50 10.77122 123.01597 36 ft 12 kts 211°
2026-04-25 23:50 10.77044 123.01551 36 ft 13 kts 208°
2026-04-25 23:50 10.76963 123.01499 36 ft 12 kts 227°
2026-04-25 23:51 10.76919 123.01450 36 ft 7 kts 201°
2026-04-25 23:51 10.76901 123.01463 36 ft 2 kts 76°
2026-04-25 23:51 10.76916 123.01478 36 ft 3 kts 30°
2026-04-25 23:51 10.76924 123.01482 36 ft 12 kts 30°
2026-04-25 23:52 10.77250 123.01674 36 ft 92 kts 30°
2026-04-25 23:52 10.78009 123.02116 40 ft 154 kts 28°
2026-04-25 23:52 10.78956 123.02673 575 ft 161 kts 33°
2026-04-25 23:52 10.79910 123.03256 1368 ft 160 kts 33°
2026-04-25 23:53 10.80861 123.03805 2099 ft 164 kts 32°
2026-04-25 23:53 10.81897 123.04397 2650 ft 180 kts 32°
2026-04-25 23:53 10.83056 123.05064 3161 ft 201 kts 33°
2026-04-25 23:53 10.84319 123.05798 3822 ft 215 kts 33°
2026-04-25 23:54 10.85655 123.06463 4666 ft 222 kts 18°
2026-04-25 23:54 10.87225 123.06506 5524 ft 233 kts 350°
2026-04-25 23:54 10.88694 123.05782 6345 ft 245 kts 322°
2026-04-25 23:54 10.89698 123.04396 7138 ft 255 kts 292°
2026-04-25 23:55 10.89916 123.02608 7944 ft 259 kts 260°
2026-04-25 23:55 10.89241 123.00967 8738 ft 257 kts 228°
2026-04-25 23:55 10.87827 122.99864 9521 ft 253 kts 197°
2026-04-25 23:55 10.86141 122.99618 10237 ft 248 kts 169°
2026-04-25 23:56 10.84457 123.00039 10751 ft 249 kts 161°
2026-04-25 23:56 10.82788 123.00548 10966 ft 250 kts 161°
2026-04-25 23:56 10.81106 123.01045 10982 ft 250 kts 161°
2026-04-25 23:56 10.79407 123.01524 10986 ft 250 kts 162°
2026-04-25 23:57 10.77692 123.01999 10992 ft 270 kts 162°
2026-04-25 23:57 10.75725 123.02512 11002 ft 305 kts 164°
2026-04-25 23:57 10.73538 123.03047 11009 ft 337 kts 164°
2026-04-25 23:57 10.71157 123.03622 11009 ft 366 kts 165°
2026-04-25 23:58 10.68591 123.04243 11014 ft 390 kts 165°
2026-04-25 23:58 10.65912 123.04891 11018 ft 399 kts 165°
2026-04-25 23:58 10.63193 123.05550 11024 ft 401 kts 165°
2026-04-25 23:58 10.60470 123.06213 11023 ft 401 kts 165°
2026-04-25 23:59 10.57743 123.06877 11031 ft 400 kts 165°
2026-04-25 23:59 10.55048 123.07535 11027 ft 400 kts 165°
2026-04-25 23:59 10.52306 123.08204 11030 ft 401 kts 165°
2026-04-25 23:59 10.49585 123.08868 11167 ft 408 kts 165°
2026-04-26 00:00 10.46810 123.09544 11867 ft 401 kts 165°
2026-04-26 00:00 10.44150 123.10191 12494 ft 389 kts 165°
2026-04-26 00:00 10.41499 123.10837 12874 ft 387 kts 165°
2026-04-26 00:00 10.38898 123.11473 12979 ft 386 kts 165°
2026-04-26 00:01 10.36282 123.12112 12983 ft 384 kts 165°
2026-04-26 00:01 10.33694 123.12743 12992 ft 381 kts 165°
2026-04-26 00:01 10.31040 123.13392 12989 ft 404 kts 165°
2026-04-26 00:01 10.28274 123.14174 12988 ft 411 kts 156°
2026-04-26 00:02 10.25908 123.15747 12998 ft 409 kts 134°
2026-04-26 00:02 10.24345 123.18102 13010 ft 407 kts 111°
2026-04-26 00:02 10.23744 123.20882 13012 ft 400 kts 96°
2026-04-26 00:02 10.23440 123.23650 12798 ft 385 kts 97°
2026-04-26 00:03 10.23008 123.26277 12561 ft 371 kts 101°
2026-04-26 00:03 10.22454 123.28769 12310 ft 358 kts 103°
2026-04-26 00:03 10.21822 123.31177 12055 ft 347 kts 105°
2026-04-26 00:03 10.21163 123.33485 11728 ft 338 kts 106°
2026-04-26 00:04 10.20494 123.35746 11391 ft 331 kts 106°
2026-04-26 00:04 10.19836 123.37949 11058 ft 324 kts 106°
2026-04-26 00:04 10.19185 123.40122 10740 ft 317 kts 106°
2026-04-26 00:04 10.18554 123.42225 10424 ft 309 kts 106°
2026-04-26 00:05 10.17944 123.44260 10139 ft 291 kts 106°
2026-04-26 00:05 10.17366 123.46190 9929 ft 280 kts 105°
2026-04-26 00:05 10.16808 123.48053 9662 ft 273 kts 105°
2026-04-26 00:05 10.16262 123.49876 9412 ft 267 kts 105°
2026-04-26 00:06 10.15735 123.51637 9173 ft 261 kts 105°
2026-04-26 00:06 10.15215 123.53378 8931 ft 256 kts 105°
2026-04-26 00:06 10.14700 123.55106 8678 ft 251 kts 105°
2026-04-26 00:06 10.14203 123.56767 8451 ft 245 kts 105°
2026-04-26 00:07 10.13715 123.58397 8245 ft 239 kts 105°
2026-04-26 00:07 10.13236 123.59997 8018 ft 234 kts 105°
2026-04-26 00:07 10.12767 123.61563 7757 ft 231 kts 105°
2026-04-26 00:07 10.12302 123.63118 7422 ft 232 kts 105°
2026-04-26 00:08 10.11835 123.64681 7094 ft 232 kts 105°
2026-04-26 00:08 10.11369 123.66233 6868 ft 227 kts 105°
2026-04-26 00:08 10.10909 123.67767 6564 ft 226 kts 105°
2026-04-26 00:08 10.10453 123.69288 6246 ft 226 kts 105°
2026-04-26 00:09 10.09995 123.70812 6011 ft 222 kts 105°
2026-04-26 00:09 10.09545 123.72311 5697 ft 222 kts 105°
2026-04-26 00:09 10.09100 123.73791 5411 ft 221 kts 105°
2026-04-26 00:09 10.08887 123.75315 5081 ft 220 kts 79°
2026-04-26 00:10 10.09565 123.76690 4788 ft 222 kts 49°
2026-04-26 00:10 10.10710 123.77752 4527 ft 220 kts 45°
2026-04-26 00:10 10.11822 123.78793 4260 ft 219 kts 46°
2026-04-26 00:10 10.12934 123.79856 3992 ft 217 kts 46°
2026-04-26 00:11 10.14020 123.80898 3731 ft 216 kts 46°
2026-04-26 00:11 10.15116 123.81952 3469 ft 214 kts 46°
2026-04-26 00:11 10.16182 123.83000 3211 ft 212 kts 47°
2026-04-26 00:11 10.17220 123.84045 3013 ft 207 kts 47°
2026-04-26 00:12 10.18218 123.85047 2989 ft 193 kts 47°
2026-04-26 00:12 10.19138 123.85971 2985 ft 178 kts 47°
2026-04-26 00:12 10.19994 123.86831 2851 ft 168 kts 47°
2026-04-26 00:12 10.20796 123.87637 2707 ft 157 kts 47°
2026-04-26 00:13 10.21577 123.88423 2453 ft 155 kts 47°
2026-04-26 00:13 10.22336 123.89188 2222 ft 151 kts 46°
2026-04-26 00:13 10.23050 123.89905 2004 ft 141 kts 46°
2026-04-26 00:13 10.23750 123.90609 1857 ft 140 kts 46°
2026-04-26 00:14 10.24434 123.91297 1655 ft 136 kts 46°
2026-04-26 00:14 10.25105 123.91971 1471 ft 135 kts 46°
2026-04-26 00:14 10.25767 123.92632 1293 ft 134 kts 46°
2026-04-26 00:14 10.26435 123.93304 1115 ft 134 kts 46°
2026-04-26 00:15 10.27105 123.93979 931 ft 133 kts 45°
2026-04-26 00:15 10.27765 123.94641 754 ft 133 kts 46°
2026-04-26 00:15 10.28420 123.95319 581 ft 133 kts 47°
2026-04-26 00:15 10.29076 123.95998 392 ft 133 kts 45°
2026-04-26 00:16 10.29730 123.96644 199 ft 133 kts 46°
2026-04-26 00:16 10.30392 123.97310 53 ft 132 kts 45°
2026-04-26 00:16 10.30969 123.97888 36 ft 93 kts 45°
2026-04-26 00:16 10.31301 123.98219 36 ft 27 kts 46°
2026-04-26 00:17 10.31396 123.98292 36 ft 14 kts
2026-04-26 00:17 10.31471 123.98242 36 ft 14 kts 310°
2026-04-26 00:17 10.31525 123.98186 36 ft 15 kts 315°
2026-04-26 00:17 10.31568 123.98132 36 ft 9 kts 283°
2026-04-26 00:18 10.31550 123.98087 36 ft 7 kts 224°
2026-04-26 00:18 10.31511 123.98049 36 ft 7 kts 225°
2026-04-26 00:18 10.31512 123.98016 36 ft 5 kts 312°
2026-04-26 00:18 10.31537 123.97990 36 ft 2 kts 314°
2026-04-26 00:19 10.31549 123.97977 36 ft 1 kts 313°
2026-04-26 00:19 10.31550 123.97977 36 ft 0 kts 313°